Year,Month,Day,Hour,Minute,Value (Times are PST for temperature in C)
2015,04,08,00,00,5.80
2015,04,08,00,01,5.80
2015,04,08,00,02,5.80
2015,04,08,00,03,5.80
2015,04,08,00,04,5.80
2015,04,08,00,05,5.90
2015,04,08,00,06,5.90
2015,04,08,00,07,5.90
2015,04,08,00,08,5.90
2015,04,08,00,09,5.90
2015,04,08,00,10,5.90
2015,04,08,00,11,5.90
2015,04,08,00,12,5.90
2015,04,08,00,13,6.00
2015,04,08,00,14,6.00
2015,04,08,00,15,6.10
2015,04,08,00,16,6.20
2015,04,08,00,17,6.30
2015,04,08,00,18,6.40
2015,04,08,00,19,6.50
2015,04,08,00,20,6.70
2015,04,08,00,21,6.80
2015,04,08,00,22,6.90
2015,04,08,00,23,6.90
2015,04,08,00,24,6.90
2015,04,08,00,25,6.90
2015,04,08,00,26,6.90
2015,04,08,00,27,6.80
2015,04,08,00,28,6.80
2015,04,08,00,29,6.80
2015,04,08,00,30,6.80
2015,04,08,00,31,6.90
2015,04,08,00,32,6.90
2015,04,08,00,33,6.80
2015,04,08,00,34,6.80
2015,04,08,00,35,6.90
2015,04,08,00,36,6.90
2015,04,08,00,37,6.80
2015,04,08,00,38,6.80
2015,04,08,00,39,6.70
2015,04,08,00,40,6.60
2015,04,08,00,41,6.60
2015,04,08,00,42,6.50
2015,04,08,00,43,6.50
2015,04,08,00,44,6.40
2015,04,08,00,45,6.40
2015,04,08,00,46,6.30
2015,04,08,00,47,6.30
2015,04,08,00,48,6.40
2015,04,08,00,49,6.40
2015,04,08,00,50,6.40
2015,04,08,00,51,6.40
2015,04,08,00,52,6.40
2015,04,08,00,53,6.40
2015,04,08,00,54,6.50
2015,04,08,00,55,6.50
2015,04,08,00,56,6.60
2015,04,08,00,57,6.60
2015,04,08,00,58,6.60
2015,04,08,00,59,6.60
2015,04,08,01,00,6.60
2015,04,08,01,01,6.60
2015,04,08,01,02,6.50
2015,04,08,01,03,6.50
2015,04,08,01,04,6.50
2015,04,08,01,05,6.50
2015,04,08,01,06,6.50
2015,04,08,01,07,6.50
2015,04,08,01,08,6.50
2015,04,08,01,09,6.50
2015,04,08,01,10,6.50
2015,04,08,01,11,6.40
2015,04,08,01,12,6.40
2015,04,08,01,13,6.40
2015,04,08,01,14,6.30
2015,04,08,01,15,6.30
2015,04,08,01,16,6.30
2015,04,08,01,17,6.30
2015,04,08,01,18,6.40
2015,04,08,01,19,6.40
2015,04,08,01,20,6.40
2015,04,08,01,21,6.50
2015,04,08,01,22,6.50
2015,04,08,01,23,6.50
2015,04,08,01,24,6.40
2015,04,08,01,25,6.30
2015,04,08,01,26,6.30
2015,04,08,01,27,6.30
2015,04,08,01,28,6.30
2015,04,08,01,29,6.30
2015,04,08,01,30,6.30
2015,04,08,01,31,6.30
2015,04,08,01,32,6.30
2015,04,08,01,33,6.30
2015,04,08,01,34,6.30
2015,04,08,01,35,6.20
2015,04,08,01,36,6.20
2015,04,08,01,37,6.10
2015,04,08,01,38,6.10
2015,04,08,01,39,6.10
2015,04,08,01,40,6.00
2015,04,08,01,41,6.00
2015,04,08,01,42,6.00
2015,04,08,01,43,6.00
2015,04,08,01,44,6.10
2015,04,08,01,45,6.20
2015,04,08,01,46,6.20
2015,04,08,01,47,6.30
2015,04,08,01,48,6.30
2015,04,08,01,49,6.30
2015,04,08,01,50,6.30
2015,04,08,01,51,6.40
2015,04,08,01,52,6.50
2015,04,08,01,53,6.70
2015,04,08,01,54,6.80
2015,04,08,01,55,7.00
2015,04,08,01,56,7.00
2015,04,08,01,57,7.10
2015,04,08,01,58,7.10
2015,04,08,01,59,7.10
2015,04,08,02,00,7.00
2015,04,08,02,01,6.90
2015,04,08,02,02,6.90
2015,04,08,02,03,6.90
2015,04,08,02,04,6.90
2015,04,08,02,05,7.00
2015,04,08,02,06,7.00
2015,04,08,02,07,7.00
2015,04,08,02,08,6.90
2015,04,08,02,09,6.80
2015,04,08,02,10,6.70
2015,04,08,02,11,6.60
2015,04,08,02,12,6.60
2015,04,08,02,13,6.50
2015,04,08,02,14,6.60
2015,04,08,02,15,6.60
2015,04,08,02,16,6.60
2015,04,08,02,17,6.70
2015,04,08,02,18,6.60
2015,04,08,02,19,6.60
2015,04,08,02,20,6.50
2015,04,08,02,21,6.40
2015,04,08,02,22,6.30
2015,04,08,02,23,6.30
2015,04,08,02,24,6.20
2015,04,08,02,25,6.10
2015,04,08,02,26,6.00
2015,04,08,02,27,6.00
2015,04,08,02,28,5.90
2015,04,08,02,29,5.80
2015,04,08,02,30,5.80
2015,04,08,02,31,5.70
2015,04,08,02,32,5.70
2015,04,08,02,33,5.60
2015,04,08,02,34,5.60
2015,04,08,02,35,5.50
2015,04,08,02,36,5.50
2015,04,08,02,37,5.40
2015,04,08,02,38,5.40
2015,04,08,02,39,5.30
2015,04,08,02,40,5.30
2015,04,08,02,41,5.20
2015,04,08,02,42,5.20
2015,04,08,02,43,5.20
2015,04,08,02,44,5.20
2015,04,08,02,45,5.10
2015,04,08,02,46,5.10
2015,04,08,02,47,5.10
2015,04,08,02,48,5.00
2015,04,08,02,49,5.00
2015,04,08,02,50,5.00
2015,04,08,02,51,4.90
2015,04,08,02,52,4.90
2015,04,08,02,53,4.90
2015,04,08,02,54,4.80
2015,04,08,02,55,4.80
2015,04,08,02,56,4.80
2015,04,08,02,57,4.80
2015,04,08,02,58,4.80
2015,04,08,02,59,4.80
2015,04,08,03,00,4.80
2015,04,08,03,01,4.80
2015,04,08,03,02,4.80
2015,04,08,03,03,4.70
2015,04,08,03,04,4.70
2015,04,08,03,05,4.70
2015,04,08,03,06,4.70
2015,04,08,03,07,4.70
2015,04,08,03,08,4.60
2015,04,08,03,09,4.60
2015,04,08,03,10,4.60
2015,04,08,03,11,4.60
2015,04,08,03,12,4.50
2015,04,08,03,13,4.50
2015,04,08,03,14,4.50
2015,04,08,03,15,4.40
2015,04,08,03,16,4.40
2015,04,08,03,17,4.40
2015,04,08,03,18,4.40
2015,04,08,03,19,4.40
2015,04,08,03,20,4.40
2015,04,08,03,21,4.30
2015,04,08,03,22,4.30
2015,04,08,03,23,4.30
2015,04,08,03,24,4.30
2015,04,08,03,25,4.20
2015,04,08,03,26,4.20
2015,04,08,03,27,4.20
2015,04,08,03,28,4.20
2015,04,08,03,29,4.20
2015,04,08,03,30,4.10
2015,04,08,03,31,4.10
2015,04,08,03,32,4.10
2015,04,08,03,33,4.10
2015,04,08,03,34,4.00
2015,04,08,03,35,4.00
2015,04,08,03,36,4.00
2015,04,08,03,37,4.00
2015,04,08,03,38,3.90
2015,04,08,03,39,3.90
2015,04,08,03,40,3.90
2015,04,08,03,41,3.90
2015,04,08,03,42,3.90
2015,04,08,03,43,3.90
2015,04,08,03,44,3.80
2015,04,08,03,45,3.80
2015,04,08,03,46,3.80
2015,04,08,03,47,3.80
2015,04,08,03,48,3.80
2015,04,08,03,49,3.80
2015,04,08,03,50,3.80
2015,04,08,03,51,3.80
2015,04,08,03,52,3.80
2015,04,08,03,53,3.80
2015,04,08,03,54,3.80
2015,04,08,03,55,3.80
2015,04,08,03,56,3.80
2015,04,08,03,57,3.90
2015,04,08,03,58,3.90
2015,04,08,03,59,3.90
2015,04,08,04,00,3.90
2015,04,08,04,01,4.00
2015,04,08,04,02,4.00
2015,04,08,04,03,4.00
2015,04,08,04,04,4.00
2015,04,08,04,05,4.00
2015,04,08,04,06,3.90
2015,04,08,04,07,3.90
2015,04,08,04,08,3.90
2015,04,08,04,09,3.80
2015,04,08,04,10,3.80
2015,04,08,04,11,3.80
2015,04,08,04,12,3.80
2015,04,08,04,13,3.80
2015,04,08,04,14,3.80
2015,04,08,04,15,3.70
2015,04,08,04,16,3.70
2015,04,08,04,17,3.70
2015,04,08,04,18,3.60
2015,04,08,04,19,3.60
2015,04,08,04,20,3.60
2015,04,08,04,21,3.60
2015,04,08,04,22,3.50
2015,04,08,04,23,3.50
2015,04,08,04,24,3.50
2015,04,08,04,25,3.40
2015,04,08,04,26,3.40
2015,04,08,04,27,3.40
2015,04,08,04,28,3.40
2015,04,08,04,29,3.40
2015,04,08,04,30,3.40
2015,04,08,04,31,3.40
2015,04,08,04,32,3.40
2015,04,08,04,33,3.50
2015,04,08,04,34,3.50
2015,04,08,04,35,3.50
2015,04,08,04,36,3.50
2015,04,08,04,37,3.50
2015,04,08,04,38,3.50
2015,04,08,04,39,3.50
2015,04,08,04,40,3.40
2015,04,08,04,41,3.40
2015,04,08,04,42,3.40
2015,04,08,04,43,3.40
2015,04,08,04,44,3.30
2015,04,08,04,45,3.30
2015,04,08,04,46,3.30
2015,04,08,04,47,3.30
2015,04,08,04,48,3.30
2015,04,08,04,49,3.30
2015,04,08,04,50,3.20
2015,04,08,04,51,3.20
2015,04,08,04,52,3.20
2015,04,08,04,53,3.20
2015,04,08,04,54,3.20
2015,04,08,04,55,3.20
2015,04,08,04,56,3.20
2015,04,08,04,57,3.20
2015,04,08,04,58,3.20
2015,04,08,04,59,3.20
2015,04,08,05,00,3.20
2015,04,08,05,01,3.20
2015,04,08,05,02,3.20
2015,04,08,05,03,3.10
2015,04,08,05,04,3.10
2015,04,08,05,05,3.10
2015,04,08,05,06,3.00
2015,04,08,05,07,3.00
2015,04,08,05,08,3.00
2015,04,08,05,09,3.00
2015,04,08,05,10,3.00
2015,04,08,05,11,3.00
2015,04,08,05,12,3.00
2015,04,08,05,13,3.00
2015,04,08,05,14,3.00
2015,04,08,05,15,3.00
2015,04,08,05,16,3.00
2015,04,08,05,17,3.00
2015,04,08,05,18,2.90
2015,04,08,05,19,2.90
2015,04,08,05,20,2.90
2015,04,08,05,21,2.90
2015,04,08,05,22,2.80
2015,04,08,05,23,2.80
2015,04,08,05,24,2.80
2015,04,08,05,25,2.80
2015,04,08,05,26,2.80
2015,04,08,05,27,2.80
2015,04,08,05,28,2.80
2015,04,08,05,29,2.80
2015,04,08,05,30,2.80
2015,04,08,05,31,2.80
2015,04,08,05,32,2.80
2015,04,08,05,33,2.80
2015,04,08,05,34,2.80
2015,04,08,05,35,2.70
2015,04,08,05,36,2.70
2015,04,08,05,37,2.70
2015,04,08,05,38,2.70
2015,04,08,05,39,2.70
2015,04,08,05,40,2.70
2015,04,08,05,41,2.70
2015,04,08,05,42,2.70
2015,04,08,05,43,2.70
2015,04,08,05,44,2.70
2015,04,08,05,45,2.80
2015,04,08,05,46,2.80
2015,04,08,05,47,2.80
2015,04,08,05,48,2.80
2015,04,08,05,49,2.80
2015,04,08,05,50,2.80
2015,04,08,05,51,2.80
2015,04,08,05,52,2.80
2015,04,08,05,53,2.80
2015,04,08,05,54,2.80
2015,04,08,05,55,2.80
2015,04,08,05,56,2.80
2015,04,08,05,57,2.80
2015,04,08,05,58,2.80
2015,04,08,05,59,2.70
2015,04,08,06,00,2.70
2015,04,08,06,01,2.70
2015,04,08,06,02,2.60
2015,04,08,06,03,2.60
2015,04,08,06,04,2.60
2015,04,08,06,05,2.60
2015,04,08,06,06,2.50
2015,04,08,06,07,2.50
2015,04,08,06,08,2.40
2015,04,08,06,09,2.40
2015,04,08,06,10,2.40
2015,04,08,06,11,2.40
2015,04,08,06,12,2.40
2015,04,08,06,13,2.40
2015,04,08,06,14,2.30
2015,04,08,06,15,2.30
2015,04,08,06,16,2.30
2015,04,08,06,17,2.30
2015,04,08,06,18,2.30
2015,04,08,06,19,2.30
2015,04,08,06,20,2.30
2015,04,08,06,21,2.30
2015,04,08,06,22,2.30
2015,04,08,06,23,2.20
2015,04,08,06,24,2.20
2015,04,08,06,25,2.20
2015,04,08,06,26,2.20
2015,04,08,06,27,2.20
2015,04,08,06,28,2.20
2015,04,08,06,29,2.20
2015,04,08,06,30,2.10
2015,04,08,06,31,2.10
2015,04,08,06,32,2.10
2015,04,08,06,33,2.10
2015,04,08,06,34,2.10
2015,04,08,06,35,2.10
2015,04,08,06,36,2.00
2015,04,08,06,37,2.00
2015,04,08,06,38,2.00
2015,04,08,06,39,2.00
2015,04,08,06,40,2.00
2015,04,08,06,41,2.00
2015,04,08,06,42,2.00
2015,04,08,06,43,2.00
2015,04,08,06,44,2.00
2015,04,08,06,45,2.00
2015,04,08,06,46,2.00
2015,04,08,06,47,2.00
2015,04,08,06,48,1.90
2015,04,08,06,49,1.90
2015,04,08,06,50,1.90
2015,04,08,06,51,1.90
2015,04,08,06,52,1.90
2015,04,08,06,53,1.90
2015,04,08,06,54,1.90
2015,04,08,06,55,1.90
2015,04,08,06,56,1.80
2015,04,08,06,57,1.90
2015,04,08,06,58,1.90
2015,04,08,06,59,1.90
2015,04,08,07,00,1.90
2015,04,08,07,01,1.90
2015,04,08,07,02,2.00
2015,04,08,07,03,2.00
2015,04,08,07,04,2.00
2015,04,08,07,05,2.00
2015,04,08,07,06,2.00
2015,04,08,07,07,2.00
2015,04,08,07,08,2.00
2015,04,08,07,09,2.00
2015,04,08,07,10,1.90
2015,04,08,07,11,1.90
2015,04,08,07,12,1.90
2015,04,08,07,13,1.90
2015,04,08,07,14,1.90
2015,04,08,07,15,1.90
2015,04,08,07,16,1.90
2015,04,08,07,17,1.90
2015,04,08,07,18,1.80
2015,04,08,07,19,1.80
2015,04,08,07,20,1.80
2015,04,08,07,21,1.80
2015,04,08,07,22,1.80
2015,04,08,07,23,1.80
2015,04,08,07,24,1.80
2015,04,08,07,25,1.80
2015,04,08,07,26,1.80
2015,04,08,07,27,1.80
2015,04,08,07,28,1.80
2015,04,08,07,29,1.80
2015,04,08,07,30,1.90
2015,04,08,07,31,1.90
2015,04,08,07,32,1.90
2015,04,08,07,33,1.90
2015,04,08,07,34,1.90
2015,04,08,07,35,1.80
2015,04,08,07,36,1.80
2015,04,08,07,37,1.80
2015,04,08,07,38,1.80
2015,04,08,07,39,1.80
2015,04,08,07,40,1.80
2015,04,08,07,41,1.80
2015,04,08,07,42,1.80
2015,04,08,07,43,1.90
2015,04,08,07,44,1.90
2015,04,08,07,45,1.90
2015,04,08,07,46,1.90
2015,04,08,07,47,1.90
2015,04,08,07,48,1.90
2015,04,08,07,49,1.90
2015,04,08,07,50,1.90
2015,04,08,07,51,1.80
2015,04,08,07,52,1.80
2015,04,08,07,53,1.80
2015,04,08,07,54,1.80
2015,04,08,07,55,1.80
2015,04,08,07,56,1.80
2015,04,08,07,57,1.80
2015,04,08,07,58,1.80
2015,04,08,07,59,1.80
2015,04,08,08,00,1.80
2015,04,08,08,01,1.70
2015,04,08,08,02,1.70
2015,04,08,08,03,1.70
2015,04,08,08,04,1.70
2015,04,08,08,05,1.70
2015,04,08,08,06,1.80
2015,04,08,08,07,1.80
2015,04,08,08,08,1.80
2015,04,08,08,09,1.80
2015,04,08,08,10,1.80
2015,04,08,08,11,1.80
2015,04,08,08,12,1.90
2015,04,08,08,13,1.90
2015,04,08,08,14,1.90
2015,04,08,08,15,1.90
2015,04,08,08,16,1.80
2015,04,08,08,17,1.80
2015,04,08,08,18,1.80
2015,04,08,08,19,1.90
2015,04,08,08,20,1.80
2015,04,08,08,21,1.80
2015,04,08,08,22,1.90
2015,04,08,08,23,1.90
2015,04,08,08,24,1.90
2015,04,08,08,25,1.90
2015,04,08,08,26,1.90
2015,04,08,08,27,1.90
2015,04,08,08,28,1.90
2015,04,08,08,29,1.90
2015,04,08,08,30,1.90
2015,04,08,08,31,1.90
2015,04,08,08,32,1.90
2015,04,08,08,33,1.90
2015,04,08,08,34,1.90
2015,04,08,08,35,1.90
2015,04,08,08,36,1.90
2015,04,08,08,37,1.90
2015,04,08,08,38,1.90
2015,04,08,08,39,1.90
2015,04,08,08,40,1.90
2015,04,08,08,41,2.00
2015,04,08,08,42,2.00
2015,04,08,08,43,2.10
2015,04,08,08,44,2.10
2015,04,08,08,45,2.10
2015,04,08,08,46,2.10
2015,04,08,08,47,2.20
2015,04,08,08,48,2.20
2015,04,08,08,49,2.20
2015,04,08,08,50,2.20
2015,04,08,08,51,2.20
2015,04,08,08,52,2.20
2015,04,08,08,53,2.20
2015,04,08,08,54,2.20
2015,04,08,08,55,2.30
2015,04,08,08,56,2.30
2015,04,08,08,57,2.40
2015,04,08,08,58,2.40
2015,04,08,08,59,2.40
2015,04,08,09,00,2.40
2015,04,08,09,01,2.40
2015,04,08,09,02,2.40
2015,04,08,09,03,2.40
2015,04,08,09,04,2.40
2015,04,08,09,05,2.40
2015,04,08,09,06,2.40
2015,04,08,09,07,2.40
2015,04,08,09,08,2.40
2015,04,08,09,09,2.40
2015,04,08,09,10,2.40
2015,04,08,09,11,2.40
2015,04,08,09,12,2.50
2015,04,08,09,13,2.50
2015,04,08,09,14,2.60
2015,04,08,09,15,2.60
2015,04,08,09,16,2.70
2015,04,08,09,17,2.70
2015,04,08,09,18,2.70
2015,04,08,09,19,2.70
2015,04,08,09,20,2.70
2015,04,08,09,21,2.70
2015,04,08,09,22,2.70
2015,04,08,09,23,2.70
2015,04,08,09,24,2.70
2015,04,08,09,25,2.70
2015,04,08,09,26,2.70
2015,04,08,09,27,2.70
2015,04,08,09,28,2.70
2015,04,08,09,29,2.70
2015,04,08,09,30,2.80
2015,04,08,09,31,2.80
2015,04,08,09,32,2.80
2015,04,08,09,33,2.80
2015,04,08,09,34,2.80
2015,04,08,09,35,2.80
2015,04,08,09,36,2.90
2015,04,08,09,37,2.90
2015,04,08,09,38,2.90
2015,04,08,09,39,3.00
2015,04,08,09,40,3.00
2015,04,08,09,41,3.00
2015,04,08,09,42,3.00
2015,04,08,09,43,3.00
2015,04,08,09,44,3.10
2015,04,08,09,45,3.10
2015,04,08,09,46,3.10
2015,04,08,09,47,3.10
2015,04,08,09,48,3.20
2015,04,08,09,49,3.20
2015,04,08,09,50,3.30
2015,04,08,09,51,3.30
2015,04,08,09,52,3.30
2015,04,08,09,53,3.40
2015,04,08,09,54,3.40
2015,04,08,09,55,3.50
2015,04,08,09,56,3.50
2015,04,08,09,57,3.60
2015,04,08,09,58,3.60
2015,04,08,09,59,3.70
2015,04,08,10,00,3.70
2015,04,08,10,01,3.70
2015,04,08,10,02,3.70
2015,04,08,10,03,3.70
2015,04,08,10,04,3.80
2015,04,08,10,05,3.80
2015,04,08,10,06,3.80
2015,04,08,10,07,3.80
2015,04,08,10,08,3.80
2015,04,08,10,09,3.90
2015,04,08,10,10,3.90
2015,04,08,10,11,4.00
2015,04,08,10,12,4.00
2015,04,08,10,13,4.20
2015,04,08,10,14,4.30
2015,04,08,10,15,4.40
2015,04,08,10,16,4.50
2015,04,08,10,17,4.60
2015,04,08,10,18,4.70
2015,04,08,10,19,4.90
2015,04,08,10,20,5.00
2015,04,08,10,21,5.10
2015,04,08,10,22,5.30
2015,04,08,10,23,5.40
2015,04,08,10,24,5.60
2015,04,08,10,25,5.80
2015,04,08,10,26,5.90
2015,04,08,10,27,6.00
2015,04,08,10,28,6.20
2015,04,08,10,29,6.30
2015,04,08,10,30,6.40
2015,04,08,10,31,6.50
2015,04,08,10,32,6.60
2015,04,08,10,33,6.80
2015,04,08,10,34,6.80
2015,04,08,10,35,6.90
2015,04,08,10,36,7.10
2015,04,08,10,37,7.20
2015,04,08,10,38,7.30
2015,04,08,10,39,7.40
2015,04,08,10,40,7.60
2015,04,08,10,41,7.70
2015,04,08,10,42,7.80
2015,04,08,10,43,7.90
2015,04,08,10,44,8.00
2015,04,08,10,45,8.10
2015,04,08,10,46,8.20
2015,04,08,10,47,8.20
2015,04,08,10,48,8.30
2015,04,08,10,49,8.30
2015,04,08,10,50,8.40
2015,04,08,10,51,8.50
2015,04,08,10,52,8.60
2015,04,08,10,53,8.60
2015,04,08,10,54,8.70
2015,04,08,10,55,8.70
2015,04,08,10,56,8.80
2015,04,08,10,57,8.90
2015,04,08,10,58,8.90
2015,04,08,10,59,9.00
2015,04,08,11,00,9.10
2015,04,08,11,01,9.10
2015,04,08,11,02,9.20
2015,04,08,11,03,9.20
2015,04,08,11,04,9.30
2015,04,08,11,05,9.30
2015,04,08,11,06,9.40
2015,04,08,11,07,9.40
2015,04,08,11,08,9.40
2015,04,08,11,09,9.40
2015,04,08,11,10,9.50
2015,04,08,11,11,9.60
2015,04,08,11,12,9.60
2015,04,08,11,13,9.70
2015,04,08,11,14,9.70
2015,04,08,11,15,9.70
2015,04,08,11,16,9.70
2015,04,08,11,17,9.80
2015,04,08,11,18,9.90
2015,04,08,11,19,10.00
2015,04,08,11,20,10.10
2015,04,08,11,21,10.20
2015,04,08,11,22,10.30
2015,04,08,11,23,10.40
2015,04,08,11,24,10.50
2015,04,08,11,25,10.60
2015,04,08,11,26,10.70
2015,04,08,11,27,10.80
2015,04,08,11,28,10.80
2015,04,08,11,29,10.80
2015,04,08,11,30,10.90
2015,04,08,11,31,10.90
2015,04,08,11,32,10.90
2015,04,08,11,33,11.00
2015,04,08,11,34,11.10
2015,04,08,11,35,11.20
2015,04,08,11,36,11.20
2015,04,08,11,37,11.30
2015,04,08,11,38,11.30
2015,04,08,11,39,11.40
2015,04,08,11,40,11.50
2015,04,08,11,41,11.60
2015,04,08,11,42,11.60
2015,04,08,11,43,11.70
2015,04,08,11,44,11.80
2015,04,08,11,45,11.80
2015,04,08,11,46,11.80
2015,04,08,11,47,11.90
2015,04,08,11,48,12.00
2015,04,08,11,49,12.10
2015,04,08,11,50,12.20
2015,04,08,11,51,12.30
2015,04,08,11,52,12.40
2015,04,08,11,53,12.50
2015,04,08,11,54,12.60
2015,04,08,11,55,12.70
2015,04,08,11,56,12.70
2015,04,08,11,57,12.80
2015,04,08,11,58,12.80
2015,04,08,11,59,12.80
2015,04,08,12,00,12.90
2015,04,08,12,01,12.90
2015,04,08,12,02,13.00
2015,04,08,12,03,13.00
2015,04,08,12,04,13.00
2015,04,08,12,05,13.00
2015,04,08,12,06,12.90
2015,04,08,12,07,12.90
2015,04,08,12,08,12.90
2015,04,08,12,09,12.90
2015,04,08,12,10,12.90
2015,04,08,12,11,13.00
2015,04,08,12,12,13.00
2015,04,08,12,13,13.10
2015,04,08,12,14,13.20
2015,04,08,12,15,13.30
2015,04,08,12,16,13.40
2015,04,08,12,17,13.50
2015,04,08,12,18,13.60
2015,04,08,12,19,13.60
2015,04,08,12,20,13.60
2015,04,08,12,21,13.70
2015,04,08,12,22,13.70
2015,04,08,12,23,13.70
2015,04,08,12,24,13.70
2015,04,08,12,25,13.80
2015,04,08,12,26,13.80
2015,04,08,12,27,13.80
2015,04,08,12,28,13.80
2015,04,08,12,29,13.80
2015,04,08,12,30,13.80
2015,04,08,12,31,13.80
2015,04,08,12,32,13.80
2015,04,08,12,33,13.80
2015,04,08,12,34,13.80
2015,04,08,12,35,13.80
2015,04,08,12,36,13.80
2015,04,08,12,37,13.80
2015,04,08,12,38,13.80
2015,04,08,12,39,13.90
2015,04,08,12,40,13.90
2015,04,08,12,41,13.90
2015,04,08,12,42,13.90
2015,04,08,12,43,13.90
2015,04,08,12,44,14.00
2015,04,08,12,45,14.00
2015,04,08,12,46,14.10
2015,04,08,12,47,14.10
2015,04,08,12,48,14.10
2015,04,08,12,49,14.20
2015,04,08,12,50,14.30
2015,04,08,12,51,14.30
2015,04,08,12,52,14.30
2015,04,08,12,53,14.30
2015,04,08,12,54,14.30
2015,04,08,12,55,14.40
2015,04,08,12,56,14.40
2015,04,08,12,57,14.40
2015,04,08,12,58,14.40
2015,04,08,12,59,14.50
2015,04,08,13,00,14.50
2015,04,08,13,01,14.60
2015,04,08,13,02,14.70
2015,04,08,13,03,14.80
2015,04,08,13,04,14.80
2015,04,08,13,05,14.80
2015,04,08,13,06,14.90
2015,04,08,13,07,15.00
2015,04,08,13,08,15.10
2015,04,08,13,09,15.10
2015,04,08,13,10,15.20
2015,04,08,13,11,15.20
2015,04,08,13,12,15.20
2015,04,08,13,13,15.30
2015,04,08,13,14,15.40
2015,04,08,13,15,15.50
2015,04,08,13,16,15.50
2015,04,08,13,17,15.60
2015,04,08,13,18,15.70
2015,04,08,13,19,15.80
2015,04,08,13,20,15.80
2015,04,08,13,21,15.90
2015,04,08,13,22,15.90
2015,04,08,13,23,15.90
2015,04,08,13,24,15.90
2015,04,08,13,25,15.90
2015,04,08,13,26,16.00
2015,04,08,13,27,16.00
2015,04,08,13,28,16.00
2015,04,08,13,29,16.00
2015,04,08,13,30,16.00
2015,04,08,13,31,16.00
2015,04,08,13,32,16.00
2015,04,08,13,33,16.00
2015,04,08,13,34,16.10
2015,04,08,13,35,16.10
2015,04,08,13,36,16.10
2015,04,08,13,37,16.10
2015,04,08,13,38,16.00
2015,04,08,13,39,16.00
2015,04,08,13,40,16.10
2015,04,08,13,41,16.10
2015,04,08,13,42,16.10
2015,04,08,13,43,16.10
2015,04,08,13,44,16.10
2015,04,08,13,45,16.20
2015,04,08,13,46,16.20
2015,04,08,13,47,16.30
2015,04,08,13,48,16.30
2015,04,08,13,49,16.30
2015,04,08,13,50,16.30
2015,04,08,13,51,16.30
2015,04,08,13,52,16.30
2015,04,08,13,53,16.40
2015,04,08,13,54,16.40
2015,04,08,13,55,16.50
2015,04,08,13,56,16.50
2015,04,08,13,57,16.60
2015,04,08,13,58,16.60
2015,04,08,13,59,16.60
2015,04,08,14,00,16.60
2015,04,08,14,01,16.60
2015,04,08,14,02,16.60
2015,04,08,14,03,16.60
2015,04,08,14,04,16.70
2015,04,08,14,05,16.70
2015,04,08,14,06,16.70
2015,04,08,14,07,16.70
2015,04,08,14,08,16.70
2015,04,08,14,09,16.70
2015,04,08,14,10,16.70
2015,04,08,14,11,16.70
2015,04,08,14,12,16.60
2015,04,08,14,13,16.60
2015,04,08,14,14,16.60
2015,04,08,14,15,16.60
2015,04,08,14,16,16.60
2015,04,08,14,17,16.50
2015,04,08,14,18,16.50
2015,04,08,14,19,16.60
2015,04,08,14,20,16.60
2015,04,08,14,21,16.50
2015,04,08,14,22,16.50
2015,04,08,14,23,16.50
2015,04,08,14,24,16.60
2015,04,08,14,25,16.60
2015,04,08,14,26,16.60
2015,04,08,14,27,16.60
2015,04,08,14,28,16.60
2015,04,08,14,29,16.50
2015,04,08,14,30,16.50
2015,04,08,14,31,16.60
2015,04,08,14,32,16.60
2015,04,08,14,33,16.70
2015,04,08,14,34,16.70
2015,04,08,14,35,16.70
2015,04,08,14,36,16.70
2015,04,08,14,37,16.70
2015,04,08,14,38,16.70
2015,04,08,14,39,16.70
2015,04,08,14,40,16.70
2015,04,08,14,41,16.70
2015,04,08,14,42,16.70
2015,04,08,14,43,16.70
2015,04,08,14,44,16.60
2015,04,08,14,45,16.60
2015,04,08,14,46,16.70
2015,04,08,14,47,16.70
2015,04,08,14,48,16.70
2015,04,08,14,49,16.60
2015,04,08,14,50,16.60
2015,04,08,14,51,16.60
2015,04,08,14,52,16.50
2015,04,08,14,53,16.50
2015,04,08,14,54,16.50
2015,04,08,14,55,16.50
2015,04,08,14,56,16.50
2015,04,08,14,57,16.50
2015,04,08,14,58,16.50
2015,04,08,14,59,16.50
2015,04,08,15,00,16.60
2015,04,08,15,01,16.60
2015,04,08,15,02,16.60
2015,04,08,15,03,16.60
2015,04,08,15,04,16.50
2015,04,08,15,05,16.40
2015,04,08,15,06,16.40
2015,04,08,15,07,16.40
2015,04,08,15,08,16.40
2015,04,08,15,09,16.40
2015,04,08,15,10,16.40
2015,04,08,15,11,16.40
2015,04,08,15,12,16.40
2015,04,08,15,13,16.40
2015,04,08,15,14,16.40
2015,04,08,15,15,16.30
2015,04,08,15,16,16.30
2015,04,08,15,17,16.30
2015,04,08,15,18,16.30
2015,04,08,15,19,16.30
2015,04,08,15,20,16.20
2015,04,08,15,21,16.20
2015,04,08,15,22,16.20
2015,04,08,15,23,16.20
2015,04,08,15,24,16.20
2015,04,08,15,25,16.20
2015,04,08,15,26,16.30
2015,04,08,15,27,16.30
2015,04,08,15,28,16.30
2015,04,08,15,29,16.30
2015,04,08,15,30,16.30
2015,04,08,15,31,16.30
2015,04,08,15,32,16.30
2015,04,08,15,33,16.30
2015,04,08,15,34,16.20
2015,04,08,15,35,16.20
2015,04,08,15,36,16.20
2015,04,08,15,37,16.10
2015,04,08,15,38,16.10
2015,04,08,15,39,16.10
2015,04,08,15,40,16.10
2015,04,08,15,41,16.10
2015,04,08,15,42,16.10
2015,04,08,15,43,16.10
2015,04,08,15,44,16.00
2015,04,08,15,45,16.00
2015,04,08,15,46,15.90
2015,04,08,15,47,16.00
2015,04,08,15,48,15.90
2015,04,08,15,49,15.90
2015,04,08,15,50,15.90
2015,04,08,15,51,15.90
2015,04,08,15,52,15.90
2015,04,08,15,53,15.90
2015,04,08,15,54,15.90
2015,04,08,15,55,15.90
2015,04,08,15,56,15.90
2015,04,08,15,57,15.90
2015,04,08,15,58,15.90
2015,04,08,15,59,15.90
2015,04,08,16,00,15.90
2015,04,08,16,01,15.90
2015,04,08,16,02,15.90
2015,04,08,16,03,15.80
2015,04,08,16,04,15.80
2015,04,08,16,05,15.80
2015,04,08,16,06,15.80
2015,04,08,16,07,15.80
2015,04,08,16,08,15.80
2015,04,08,16,09,15.80
2015,04,08,16,10,15.80
2015,04,08,16,11,15.80
2015,04,08,16,12,15.80
2015,04,08,16,13,15.80
2015,04,08,16,14,15.80
2015,04,08,16,15,15.90
2015,04,08,16,16,15.90
2015,04,08,16,17,15.90
2015,04,08,16,18,15.90
2015,04,08,16,19,15.90
2015,04,08,16,20,15.90
2015,04,08,16,21,15.90
2015,04,08,16,22,15.90
2015,04,08,16,23,15.90
2015,04,08,16,24,15.90
2015,04,08,16,25,15.90
2015,04,08,16,26,15.90
2015,04,08,16,27,15.80
2015,04,08,16,28,15.80
2015,04,08,16,29,15.80
2015,04,08,16,30,15.80
2015,04,08,16,31,15.80
2015,04,08,16,32,15.80
2015,04,08,16,33,15.70
2015,04,08,16,34,15.70
2015,04,08,16,35,15.70
2015,04,08,16,36,15.60
2015,04,08,16,37,15.60
2015,04,08,16,38,15.60
2015,04,08,16,39,15.50
2015,04,08,16,40,15.40
2015,04,08,16,41,15.40
2015,04,08,16,42,15.40
2015,04,08,16,43,15.40
2015,04,08,16,44,15.40
2015,04,08,16,45,15.30
2015,04,08,16,46,15.30
2015,04,08,16,47,15.30
2015,04,08,16,48,15.30
2015,04,08,16,49,15.30
2015,04,08,16,50,15.30
2015,04,08,16,51,15.30
2015,04,08,16,52,15.30
2015,04,08,16,53,15.30
2015,04,08,16,54,15.30
2015,04,08,16,55,15.30
2015,04,08,16,56,15.30
2015,04,08,16,57,15.20
2015,04,08,16,58,15.20
2015,04,08,16,59,15.30
2015,04,08,17,00,15.20
2015,04,08,17,01,15.20
2015,04,08,17,02,15.20
2015,04,08,17,03,15.20
2015,04,08,17,04,15.20
2015,04,08,17,05,15.20
2015,04,08,17,06,15.10
2015,04,08,17,07,15.10
2015,04,08,17,08,15.10
2015,04,08,17,09,15.10
2015,04,08,17,10,15.00
2015,04,08,17,11,14.90
2015,04,08,17,12,14.80
2015,04,08,17,13,14.80
2015,04,08,17,14,14.80
2015,04,08,17,15,14.80
2015,04,08,17,16,14.70
2015,04,08,17,17,14.70
2015,04,08,17,18,14.60
2015,04,08,17,19,14.60
2015,04,08,17,20,14.60
2015,04,08,17,21,14.60
2015,04,08,17,22,14.60
2015,04,08,17,23,14.50
2015,04,08,17,24,14.50
2015,04,08,17,25,14.50
2015,04,08,17,26,14.50
2015,04,08,17,27,14.40
2015,04,08,17,28,14.40
2015,04,08,17,29,14.40
2015,04,08,17,30,14.30
2015,04,08,17,31,14.30
2015,04,08,17,32,14.30
2015,04,08,17,33,14.30
2015,04,08,17,34,14.30
2015,04,08,17,35,14.30
2015,04,08,17,36,14.30
2015,04,08,17,37,14.30
2015,04,08,17,38,14.30
2015,04,08,17,39,14.30
2015,04,08,17,40,14.30
2015,04,08,17,41,14.20
2015,04,08,17,42,14.20
2015,04,08,17,43,14.20
2015,04,08,17,44,14.20
2015,04,08,17,45,14.20
2015,04,08,17,46,14.20
2015,04,08,17,47,14.10
2015,04,08,17,48,14.10